EW1541 Weather Reports


time (UTC)temp
F
wind
direction
speed
knots
gust
knots
rain 1hr
in
rain 24hr
in
rain mn
in
humidity
%
barometer
mb
20260503053059 0 281 0.0 3.5 0.00 0.30 0.00 1012.2
20260503051554 0 281 0.9 4.3 0.00 0.30 0.00 1012.3
20260503050049 0 281 0.9 3.5 0.00 0.30 0.00 1012.4
20260503044547 0 281 2.6 4.3 0.00 0.31 0.00 1012.5
20260503043041 0 281 2.6 5.2 0.00 0.31 0.00 1012.5
20260503041539 0 281 1.7 4.3 0.00 0.31 0.00 1012.5
20260503040031 0 281 0.0 1.7 0.00 0.31 0.00 1012.4
20260503034527 0 281 1.7 3.5 0.00 0.32 0.00 1012.4
20260503033022 0 281 0.0 0.0 0.00 0.32 0.00 1012.5
20260503031518 0 281 0.0 0.0 0.00 0.32 0.00 1012.6
20260503030017 0 281 0.0 0.0 0.00 0.32 0.00 1012.5
20260503024509 0 281 0.0 0.0 0.00 0.33 0.00 1012.6
20260503023005 0 281 0.0 0.0 0.00 0.33 0.00 1012.7
20260503021605 0 281 0.0 0.9 0.00 0.33 0.00 1012.7
20260503020101 0 281 0.0 0.0 0.00 0.33 0.00 1012.8
20260503014555 0 281 0.0 1.7 0.00 0.34 0.00 1012.8
20260503013048 0 281 0.0 4.3 0.00 0.34 0.00 1013.0
20260503011552 0 281 1.7 4.3 0.00 0.34 0.00 1013.1
20260503010040 0 281 1.7 4.3 0.00 0.34 0.00 1013.3
20260503004533 0 281 0.0 0.0 0.00 0.39 0.00 1013.3
20260503003030 0 281 0.0 0.0 0.00 0.39 0.00 1013.4
20260503001525 0 281 0.0 4.3 0.00 0.39 0.00 1013.5
20260503000020 0 281 0.0 3.5 0.00 0.39 0.00 1013.6
20260502234516 0 281 0.9 3.5 0.00 0.39 0.00 1013.8
20260502233012 0 281 2.6 4.3 0.00 0.39 0.00 1014.0
20260502231516 0 281 0.0 1.7 0.00 0.39 0.00 1014.0
20260502230004 0 281 2.6 4.3 0.00 0.39 0.00 1013.9
20260502224602 0 281 0.0 0.0 0.00 0.39 0.00 1014.0
20260502223055 0 281 0.0 4.3 0.00 0.39 0.00 1014.0
20260502221554 0 282 4.3 6.1 0.00 0.39 0.00 1014.1
20260502220050 0 283 0.0 4.3 0.00 0.39 0.00 1014.1
20260502214547 0 283 0.9 3.5 0.00 0.39 0.39 1014.2
20260502213040 0 283 0.0 1.7 0.00 0.39 0.39 1014.2
20260502211540 0 283 0.0 3.5 0.00 0.39 0.39 1014.3
20260502210036 0 283 0.0 4.3 0.00 0.39 0.39 1014.3
20260502204531 0 283 0.0 0.0 0.00 0.39 0.39 1014.3
20260502203028 0 283 0.0 4.3 0.00 0.39 0.39 1014.2
20260502201527 0 283 0.9 4.3 0.01 0.39 0.39 1014.3
20260502200020 0 283 0.0 6.1 0.01 0.39 0.39 1014.4
20260502194514 0 283 3.5 7.8 0.01 0.39 0.39 1014.4
20260502193010 0 281 4.3 9.6 0.02 0.39 0.39 1014.4
20260502191506 0 320 0.9 4.3 0.01 0.39 0.39 1014.4
20260502190002 0 321 3.5 11.3 0.01 0.39 0.39 1014.5
20260502184610 0 31 0.9 3.5 0.01 0.39 0.39 1014.3
20260502183055 0 31 1.7 4.3 0.00 0.38 0.38 1014.2
20260502181552 0 31 0.0 1.7 0.00 0.38 0.38 1014.1
20260502163032 0 307 0.0 0.0 0.00 0.38 0.38 1014.2
20260502161517 0 307 0.0 0.0 0.00 0.38 0.38 1014.2
20260502151604 0 307 0.9 1.7 0.01 0.38 0.38 1014.3
20260502123009 0 314 1.7 7.8 0.02 0.35 0.35 1013.9
20260502121505 0 314 1.7 5.2 0.03 0.35 0.35 1013.7
20260502114558 0 315 3.5 7.0 0.03 0.33 0.33 1013.7
20260502113054 0 315 0.0 5.2 0.04 0.33 0.33 1013.6
20260502111549 0 315 0.0 4.3 0.03 0.31 0.31 1013.5
20260502110048 0 315 0.0 3.5 0.04 0.31 0.31 1013.5
20260502104538 0 315 0.9 7.0 0.03 0.30 0.30 1013.3
20260502103034 0 315 0.9 7.0 0.04 0.28 0.28 1013.2
20260502101531 0 315 0.0 7.0 0.04 0.28 0.28 1013.1
20260502091512 0 281 0.0 6.1 0.04 0.24 0.24 1012.5
20260502071535 0 266 2.6 7.8 0.04 0.17 0.17 1010.9
20260502070031 0 5 6.1 10.4 0.04 0.15 0.15 1010.8
20260502064531 0 22 5.2 7.8 0.04 0.14 0.14 1010.8
20260502063022 0 321 0.0 0.0 0.03 0.13 0.13 1010.5
20260502061517 0 321 0.0 1.7 0.03 0.13 0.13 1010.4
20260502060013 0 321 0.0 4.3 0.02 0.11 0.11 1010.3
20260502054517 0 321 0.9 5.2 0.02 0.10 0.10 1010.3